Location: Bukovany
(49.8234°N, 14.6297°E)
Time: 15:37:50
(UTC+00:00)

CZ-4 R/B - Pass Details

Date: 17 November 2025
Orbit: 547 x 556 km, 97.6° (Epoch: 13 December)

Event Time Altitude Azimuth Distance (km) Brightness Sun altitude
Rises 17:02:52 0° 166° (SSE) 2,726 7.8 -17.1°
Reaches altitude 10° 17:04:59 10° 167° (SSE) 1,834 6.9 -17.4°
Maximum altitude 17:08:58 85° 254° (WSW) 563 4.3 -18.1°
Drops below altitude 10° 17:12:58 10° 346° (NNW) 1,843 7.1 -18.7°
Sets 17:15:06 0° 347° (NNW) 2,741 8.0 -19.1°
